CW3627 Weather Reports


time (UTC)temp
C
wind
direction
speed
KPH
gust
KPH
rain 1hr
cm
rain 24hr
cm
rain mn
cm
humidity
%
barometer
mb
20200531081235 12 250 0.0 0.0 0.00 0.03 0.00 94 1014.0
20200531080726 12 250 0.0 0.0 0.00 0.03 0.00 93 1014.0
20200531080230 12 250 0.0 0.0 0.00 0.03 0.00 94 1014.0
20200531075723 12 250 0.0 0.0 0.00 0.03 0.00 93 1014.0
20200531075227 12 250 0.0 0.0 0.00 0.03 0.00 93 1014.0
20200531074735 12 250 0.0 0.0 0.00 0.03 0.00 93 1014.0
20200531074223 13 250 0.0 0.0 0.00 0.03 0.00 93 1014.1
20200531073735 13 250 0.0 0.0 0.00 0.03 0.00 93 1014.1
20200531073222 13 250 0.0 0.0 0.00 0.03 0.00 93 1014.1
20200531072736 13 250 0.0 0.0 0.00 0.03 0.00 93 1014.0
20200531072221 13 250 0.0 0.0 0.00 0.03 0.00 93 1014.0
20200531071731 13 250 0.0 0.0 0.00 0.03 0.00 93 1014.0
20200531071220 13 250 0.0 0.0 0.00 0.03 0.00 93 1014.1
20200531070728 13 250 0.0 0.0 0.00 0.03 0.00 93 1014.1
20200531070218 13 250 0.0 0.0 0.00 0.03 0.00 93 1014.1
20200531065734 13 250 0.0 0.0 0.00 0.05 0.03 93 1014.3
20200531065222 13 250 0.0 0.0 0.00 0.05 0.03 93 1014.3
20200531064729 13 250 0.0 0.0 0.00 0.05 0.03 92 1014.3
20200531064217 13 250 0.0 0.0 0.00 0.05 0.03 92 1014.4
20200531063722 13 250 0.0 0.0 0.00 0.05 0.03 92 1014.4
20200531063230 13 250 0.0 0.0 0.00 0.05 0.03 92 1014.4
20200531062718 13 250 0.0 0.0 0.00 0.05 0.03 92 1014.5
20200531062227 13 250 0.0 0.0 0.00 0.05 0.03 92 1014.5
20200531061737 13 250 0.0 0.0 0.00 0.05 0.03 92 1014.5
20200531061223 13 250 0.0 0.0 0.00 0.05 0.03 92 1014.5
20200531060736 13 250 0.0 4.8 0.00 0.05 0.03 92 1014.5
20200531060219 13 250 0.0 8.0 0.00 0.05 0.03 92 1014.5
20200531055729 14 157 0.0 8.0 0.00 0.05 0.03 91 1014.5
20200531055221 14 192 1.6 11.3 0.00 0.05 0.03 91 1014.5
20200531054728 14 211 3.2 9.7 0.00 0.05 0.03 91 1014.5
20200531054218 14 242 0.0 9.7 0.00 0.05 0.03 91 1014.5
20200531053730 14 221 0.0 4.8 0.00 0.05 0.03 90 1014.5
20200531053219 14 221 0.0 4.8 0.00 0.05 0.03 90 1014.5
20200531052722 14 202 0.0 4.8 0.00 0.05 0.03 90 1014.2
20200531052230 14 186 0.0 0.0 0.00 0.05 0.03 89 1014.2
20200531051722 14 224 0.0 0.0 0.00 0.05 0.03 89 1014.2
20200531051226 14 205 0.0 0.0 0.00 0.05 0.03 89 1014.1
20200531050730 15 205 0.0 0.0 0.00 0.05 0.03 89 1014.1
20200531050218 15 206 0.0 0.0 0.00 0.05 0.03 89 1014.1
20200531045729 15 196 0.0 0.0 0.00 0.05 0.03 88 1014.1
20200531045219 15 196 0.0 0.0 0.00 0.05 0.03 88 1014.1
20200531044735 15 209 0.0 0.0 0.00 0.05 0.03 88 1014.1
20200531044223 15 209 0.0 0.0 0.00 0.05 0.03 87 1014.1
20200531043737 15 207 0.0 0.0 0.00 0.05 0.03 87 1014.1
20200531043226 15 207 0.0 0.0 0.00 0.05 0.03 87 1014.1
20200531042717 15 207 0.0 0.0 0.00 0.05 0.03 87 1014.0
20200531042223 15 207 0.0 0.0 0.00 0.05 0.03 87 1014.0
20200531041731 15 234 0.0 0.0 0.00 0.05 0.03 86 1014.0
20200531041222 15 232 0.0 0.0 0.00 0.05 0.03 86 1014.0
20200531040730 15 233 0.0 6.4 0.00 0.05 0.03 86 1014.0
20200531040221 15 236 0.0 8.0 0.00 0.05 0.03 86 1014.0
20200531035732 15 261 3.2 9.7 0.00 0.05 0.03 86 1014.0
20200531035220 15 239 1.6 9.7 0.00 0.05 0.03 86 1014.0
20200531034733 15 248 0.0 8.0 0.00 0.05 0.03 85 1014.0
20200531034222 15 202 1.6 8.0 0.00 0.05 0.03 85 1013.7
20200531033729 15 237 1.6 8.0 0.00 0.05 0.03 86 1013.7
20200531033235 15 242 1.6 8.0 0.00 0.05 0.03 86 1013.7
20200531032721 16 215 0.0 6.4 0.00 0.05 0.03 85 1013.5
20200531032230 16 195 0.0 6.4 0.00 0.05 0.03 85 1013.5
20200531031720 16 250 1.6 6.4 0.00 0.05 0.03 85 1013.5
20200531031230 16 252 0.0 9.7 0.00 0.05 0.03 85 1013.4
20200531030717 16 229 0.0 9.7 0.00 0.05 0.03 84 1013.4
20200531030228 16 194 4.8 12.9 0.00 0.05 0.03 83 1013.4
20200531025719 16 255 3.2 12.9 0.00 0.05 0.03 82 1013.1
20200531025227 16 240 6.4 12.9 0.00 0.05 0.03 81 1013.1
20200531024717 17 242 4.8 12.9 0.00 0.05 0.03 79 1013.1
20200531024231 17 198 1.6 12.9 0.00 0.05 0.03 78 1012.9
20200531023723 17 264 1.6 12.9 0.00 0.05 0.03 76 1012.9
20200531023231 17 259 4.8 11.3 0.00 0.05 0.03 76 1012.9
20200531022721 17 222 1.6 11.3 0.00 0.05 0.03 75 1012.8
20200531022229 17 232 1.6 9.7 0.00 0.05 0.03 75 1012.8
20200531021735 17 240 0.0 11.3 0.00 0.05 0.03 74 1012.8
20200531021219 17 260 3.2 9.7 0.00 0.05 0.03 73 1012.8
20200531020727 17 242 1.6 8.0 0.00 0.05 0.03 73 1012.8
20200531020222 18 244 1.6 9.7 0.00 0.05 0.03 72 1012.8
20200531015726 18 226 4.8 12.9 0.00 0.05 0.03 71 1012.7
20200531015216 18 232 3.2 11.3 0.00 0.05 0.03 70 1012.7
20200531014724 18 255 3.2 12.9 0.00 0.05 0.03 70 1012.7
20200531014231 18 261 6.4 12.9 0.00 0.05 0.03 70 1012.5
20200531013719 18 236 6.4 9.7 0.00 0.05 0.03 70 1012.5
20200531013223 18 192 0.0 9.7 0.00 0.05 0.03 71 1012.5
20200531012734 18 182 1.6 9.7 0.00 0.05 0.03 71 1012.5
20200531012221 18 261 0.0 6.4 0.00 0.05 0.03 71 1012.5
20200531011731 18 237 0.0 8.0 0.00 0.05 0.03 70 1012.5
20200531011221 18 213 1.6 8.0 0.00 0.05 0.03 71 1012.8
20200531010731 18 198 0.0 14.5 0.00 0.05 0.03 71 1012.8
20200531010223 18 215 4.8 14.5 0.00 0.05 0.03 70 1012.8
20200531005730 18 236 3.2 11.3 0.00 0.05 0.03 71 1012.8
20200531005216 18 184 3.2 11.3 0.00 0.05 0.03 71 1012.8
20200531004727 18 239 4.8 9.7 0.00 0.05 0.03 73 1012.8
20200531004215 18 205 0.0 9.7 0.00 0.05 0.03 73 1012.9
20200531003723 18 269 3.2 11.3 0.00 0.05 0.03 72 1012.9
20200531003234 18 240 3.2 11.3 0.00 0.05 0.03 73 1012.9
20200531002721 18 230 0.0 12.9 0.00 0.05 0.03 73 1012.9
20200531002229 18 263 0.0 16.1 0.00 0.05 0.03 74 1012.9
20200531001722 18 251 3.2 14.5 0.00 0.05 0.03 73 1012.9
20200531001233 18 276 4.8 14.5 0.00 0.05 0.03 75 1012.8
20200531000720 18 189 1.6 14.5 0.00 0.05 0.03 75 1012.8
20200531000229 18 259 1.6 17.7 0.00 0.05 0.03 74 1012.8
20200530235735 18 266 9.7 17.7 0.00 0.05 0.03 72 1012.6
20200530235220 18 243 1.6 8.0 0.00 0.05 0.03 74 1012.6
20200530234729 18 202 0.0 14.5 0.00 0.05 0.03 74 1012.6
20200530234235 18 181 0.0 14.5 0.00 0.05 0.03 74 1012.6
20200530233720 18 211 3.2 14.5 0.00 0.05 0.03 75 1012.6
20200530233216 18 258 6.4 14.5 0.00 0.05 0.03 74 1012.6
20200530232728 18 207 4.8 12.9 0.00 0.05 0.03 75 1012.6
20200530232218 18 236 6.4 12.9 0.00 0.05 0.03 76 1012.6
20200530231732 18 188 1.6 20.9 0.00 0.05 0.03 76 1012.6
20200530231227 18 248 11.3 20.9 0.00 0.05 0.03 75 1012.8
20200530230733 18 250 8.0 19.3 0.00 0.05 0.03 74 1012.8
20200530230219 18 173 6.4 19.3 0.00 0.05 0.03 73 1012.8
20200530225730 18 180 4.8 12.9 0.00 0.05 0.03 73 1012.8
20200530225220 18 198 6.4 20.9 0.00 0.05 0.03 73 1012.8
20200530224726 18 192 8.0 20.9 0.00 0.05 0.03 74 1012.8
20200530224233 19 240 3.2 17.7 0.00 0.05 0.03 73 1012.7
20200530223722 19 198 3.2 14.5 0.00 0.05 0.03 72 1012.7
20200530223226 20 191 3.2 12.9 0.00 0.05 0.03 71 1012.7
20200530222734 20 249 3.2 24.1 0.00 0.05 0.03 72 1013.0
20200530222222 20 292 8.0 24.1 0.00 0.05 0.03 72 1013.0
20200530221728 20 163 9.7 24.1 0.00 0.05 0.03 71 1013.0
20200530221235 20 224 6.4 20.9 0.00 0.05 0.03 72 1013.0
20200530220723 20 246 8.0 20.9 0.00 0.05 0.03 71 1013.0
20200530220233 20 200 6.4 19.3 0.00 0.05 0.03 72 1013.0
20200530215718 19 196 6.4 14.5 0.00 0.05 0.03 73 1012.9
20200530215222 19 165 8.0 14.5 0.00 0.05 0.03 75 1012.9
20200530214734 19 144 4.8 17.7 0.00 0.05 0.03 75 1012.9
20200530214219 19 249 4.8 16.1 0.00 0.05 0.03 76 1012.9
20200530213729 19 237 6.4 20.9 0.00 0.05 0.03 77 1012.9
20200530213218 18 236 4.8 20.9 0.00 0.05 0.03 77 1012.9
20200530212726 18 181 9.7 20.9 0.00 0.05 0.03 76 1012.9
20200530212235 19 234 11.3 20.9 0.00 0.05 0.03 76 1012.9
20200530211724 19 238 9.7 20.9 0.00 0.05 0.03 75 1012.9
20200530211236 19 216 4.8 17.7 0.00 0.05 0.03 75 1012.7
20200530210720 20 238 8.0 17.7 0.00 0.05 0.03 73 1012.7
20200530210218 20 252 3.2 16.1 0.00 0.05 0.03 71 1012.7
20200530205723 20 250 6.4 16.1 0.00 0.05 0.03 73 1012.6
20200530205227 20 245 3.2 16.1 0.00 0.05 0.03 72 1012.6
20200530204736 20 224 4.8 16.1 0.00 0.05 0.03 71 1012.6
20200530204227 20 257 1.6 11.3 0.00 0.05 0.03 70 1012.5
20200530203735 20 225 3.2 11.3 0.00 0.05 0.03 70 1012.5
20200530203221 20 272 3.2 11.3 0.00 0.05 0.03 69 1012.5
20200530202728 21 210 6.4 11.3 0.00 0.05 0.03 68 1012.4
20200530202237 21 245 4.8 11.3 0.00 0.05 0.03 65 1012.4
20200530201727 21 209 0.0 6.4 0.00 0.05 0.03 64 1012.4
20200530201236 21 220 1.6 8.0 0.00 0.05 0.03 64 1012.5
20200530200722 21 244 3.2 8.0 0.00 0.05 0.03 64 1012.5
20200530200228 21 182 0.0 0.0 0.00 0.05 0.03 65 1012.5
20200530195718 21 182 0.0 6.4 0.00 0.05 0.03 63 1012.6
20200530195233 21 257 0.0 6.4 0.00 0.05 0.03 62 1012.6
20200530194720 21 268 0.0 4.8 0.00 0.05 0.03 62 1012.6
20200530194225 21 273 0.0 4.8 0.00 0.05 0.03 63 1012.5
20200530193731 21 287 0.0 6.4 0.00 0.05 0.03 66 1012.5
20200530193220 21 241 1.6 8.0 0.00 0.05 0.03 66 1012.5
20200530192729 20 262 1.6 8.0 0.00 0.05 0.03 65 1012.4
20200530192217 20 238 0.0 14.5 0.00 0.05 0.03 64 1012.4
20200530191724 21 219 1.6 14.5 0.00 0.05 0.03 64 1012.4
20200530191216 21 221 0.0 4.8 0.00 0.05 0.03 64 1012.3
20200530190728 21 90 1.6 6.4 0.00 0.05 0.03 66 1012.3
20200530190215 20 242 1.6 6.4 0.00 0.05 0.03 67 1012.3
20200530185728 20 242 1.6 8.0 0.00 0.05 0.03 67 1012.3
20200530185233 20 234 0.0 4.8 0.00 0.05 0.03 69 1012.3
20200530184717 20 231 0.0 6.4 0.00 0.05 0.03 69 1012.3
20200530184222 19 351 0.0 6.4 0.00 0.05 0.03 70 1012.4
20200530183732 19 175 0.0 0.0 0.00 0.05 0.03 72 1012.4
20200530183225 19 175 0.0 0.0 0.00 0.05 0.03 71 1012.4
20200530182730 19 175 0.0 0.0 0.00 0.05 0.03 71 1012.4
20200530182227 19 175 0.0 0.0 0.00 0.05 0.03 70 1012.4
20200530181719 19 175 0.0 0.0 0.00 0.05 0.03 71 1012.4
20200530181229 19 175 0.0 0.0 0.00 0.05 0.03 70 1012.5
20200530180717 19 175 0.0 0.0 0.00 0.05 0.03 70 1012.5
20200530180226 19 198 0.0 0.0 0.00 0.05 0.03 70 1012.5
20200530175734 19 198 0.0 9.7 0.00 0.05 0.03 69 1012.5
20200530175219 19 192 0.0 9.7 0.00 0.05 0.03 71 1012.5
20200530174725 18 327 0.0 3.2 0.00 0.05 0.03 74 1012.5
20200530174233 18 205 0.0 1.6 0.00 0.05 0.03 74 1012.8
20200530173721 18 205 0.0 0.0 0.00 0.05 0.03 74 1012.8
20200530173232 18 205 0.0 0.0 0.00 0.05 0.03 74 1012.8
20200530172718 18 205 0.0 0.0 0.00 0.05 0.03 74 1012.9
20200530172225 18 205 0.0 0.0 0.00 0.05 0.03 74 1012.9
20200530171718 18 205 0.0 0.0 0.00 0.05 0.03 75 1012.9
20200530171235 18 205 0.0 0.0 0.00 0.05 0.03 74 1012.8
20200530170721 18 205 0.0 0.0 0.00 0.05 0.03 75 1012.8
20200530170227 18 205 0.0 0.0 0.00 0.05 0.03 75 1012.8
20200530165718 18 205 0.0 8.0 0.00 0.05 0.03 74 1012.8
20200530165226 18 205 1.6 8.0 0.00 0.05 0.03 75 1012.8
20200530164731 18 59 0.0 0.0 0.00 0.05 0.03 75 1012.8
20200530164224 18 59 0.0 0.0 0.00 0.05 0.03 75 1012.8
20200530163717 18 59 0.0 0.0 0.00 0.05 0.03 76 1012.8
20200530163232 18 57 0.0 0.0 0.00 0.05 0.03 77 1012.8
20200530162720 17 171 0.0 0.0 0.00 0.05 0.03 78 1012.5
20200530162227 17 171 0.0 0.0 0.00 0.05 0.03 78 1012.5
20200530161732 17 115 0.0 0.0 0.00 0.05 0.03 80 1012.5
20200530161229 17 114 0.0 3.2 0.00 0.05 0.03 79 1012.4
20200530160718 17 88 0.0 3.2 0.00 0.05 0.03 80 1012.4
20200530160225 17 194 0.0 0.0 0.00 0.05 0.03 82 1012.4
20200530155732 17 194 0.0 6.4 0.00 0.05 0.03 82 1012.3
20200530155217 17 194 1.6 6.4 0.00 0.05 0.03 81 1012.3
20200530154728 17 193 0.0 1.6 0.00 0.05 0.03 83 1012.3
20200530154217 17 194 0.0 4.8 0.00 0.05 0.03 83 1012.0
20200530153724 17 194 0.0 4.8 0.00 0.05 0.03 84 1012.0
20200530153233 17 90 1.6 4.8 0.00 0.05 0.03 86 1012.0
20200530152716 17 96 0.0 1.6 0.00 0.05 0.03 87 1012.3
20200530152227 16 93 0.0 6.4 0.00 0.05 0.03 88 1012.3
20200530151738 16 94 0.0 6.4 0.00 0.05 0.03 88 1012.3
20200530151224 16 107 0.0 4.8 0.00 0.05 0.03 89 1012.0
20200530150734 16 107 0.0 4.8 0.00 0.05 0.03 91 1012.0
20200530150223 16 199 0.0 0.0 0.00 0.05 0.03 93 1012.0
20200530145718 15 199 0.0 0.0 0.00 0.05 0.03 93 1012.0
20200530145227 15 199 0.0 0.0 0.00 0.05 0.03 93 1012.0
20200530144715 15 199 0.0 0.0 0.00 0.05 0.03 94 1012.0
20200530144223 15 199 0.0 0.0 0.00 0.05 0.03 94 1012.1
20200530143730 15 199 0.0 0.0 0.00 0.05 0.03 95 1012.1
20200530143225 15 199 0.0 0.0 0.00 0.05 0.03 95 1012.1
20200530142717 15 199 0.0 0.0 0.00 0.05 0.03 95 1012.1
20200530142225 15 199 0.0 0.0 0.00 0.05 0.03 95 1012.1
20200530141733 15 199 0.0 0.0 0.00 0.05 0.03 95 1012.1
20200530141220 15 199 0.0 0.0 0.00 0.05 0.03 95 1012.2
20200530140727 15 199 0.0 0.0 0.00 0.05 0.03 95 1012.2
20200530140220 15 199 0.0 0.0 0.00 0.05 0.03 95 1012.2
20200530135726 15 199 0.0 0.0 0.00 0.05 0.03 95 1012.4
20200530135236 15 199 0.0 0.0 0.00 0.05 0.03 95 1012.4
20200530134731 15 199 0.0 0.0 0.00 0.05 0.03 95 1012.4
20200530134221 15 199 0.0 0.0 0.00 0.05 0.03 95 1012.3
20200530133729 15 199 0.0 0.0 0.00 0.05 0.03 95 1012.3
20200530133221 15 199 0.0 0.0 0.00 0.05 0.03 95 1012.3
20200530132729 15 199 0.0 0.0 0.00 0.05 0.03 95 1011.9
20200530132233 15 199 0.0 0.0 0.00 0.05 0.03 95 1011.9
20200530131725 15 199 0.0 0.0 0.00 0.05 0.03 95 1011.9
20200530131235 15 199 0.0 0.0 0.00 0.05 0.03 95 1011.9
20200530130724 15 199 0.0 0.0 0.00 0.05 0.03 95 1011.9
20200530130231 15 199 0.0 0.0 0.00 0.05 0.03 95 1011.9
20200530125723 15 199 0.0 0.0 0.00 0.05 0.03 95 1011.9
20200530125232 15 199 0.0 0.0 0.00 0.05 0.03 95 1011.9
20200530124718 15 199 0.0 0.0 0.00 0.05 0.03 95 1011.9
20200530124224 15 199 0.0 0.0 0.00 0.05 0.03 95 1011.9
20200530123731 15 199 0.0 0.0 0.00 0.05 0.03 95 1011.9
20200530123216 15 199 0.0 0.0 0.00 0.05 0.03 95 1011.9
20200530122732 15 199 0.0 0.0 0.00 0.05 0.03 95 1011.6
20200530122221 15 199 0.0 0.0 0.00 0.05 0.03 95 1011.6
20200530121733 15 199 0.0 0.0 0.00 0.05 0.03 95 1011.6
20200530121219 15 199 0.0 0.0 0.00 0.05 0.03 95 1011.6
20200530120734 14 199 0.0 0.0 0.00 0.05 0.03 95 1011.6
20200530120223 14 199 0.0 0.0 0.00 0.05 0.03 95 1011.6
20200530115730 14 199 0.0 0.0 0.00 0.05 0.03 95 1011.4
20200530115238 14 199 0.0 0.0 0.00 0.05 0.03 95 1011.4
20200530114724 14 199 0.0 0.0 0.00 0.05 0.03 95 1011.4
20200530114232 14 199 0.0 0.0 0.00 0.05 0.03 95 1011.5
20200530113727 14 105 0.0 0.0 0.00 0.05 0.03 95 1011.5
20200530113235 14 105 0.0 0.0 0.00 0.05 0.03 95 1011.5
20200530112722 14 105 0.0 0.0 0.00 0.05 0.03 95 1011.2
20200530112232 14 105 0.0 0.0 0.00 0.05 0.03 95 1011.2
20200530111724 14 105 0.0 0.0 0.00 0.05 0.03 95 1011.2
20200530111231 14 105 0.0 0.0 0.00 0.05 0.03 95 1011.2
20200530110719 14 105 0.0 0.0 0.00 0.05 0.03 95 1011.2
20200530110224 14 105 0.0 0.0 0.00 0.05 0.03 95 1011.2
20200530105732 14 105 0.0 0.0 0.00 0.05 0.03 95 1011.3
20200530105220 14 105 0.0 0.0 0.00 0.05 0.03 95 1011.3
20200530104733 14 105 0.0 0.0 0.00 0.05 0.03 95 1011.3
20200530104218 14 105 0.0 0.0 0.00 0.05 0.03 95 1011.4
20200530103726 14 105 0.0 0.0 0.00 0.05 0.03 95 1011.4
20200530103236 14 105 0.0 0.0 0.00 0.05 0.03 95 1011.4
20200530102724 14 105 0.0 0.0 0.00 0.05 0.03 95 1011.0
20200530102234 14 105 0.0 0.0 0.00 0.05 0.03 95 1011.0
20200530101722 14 105 0.0 0.0 0.00 0.05 0.03 95 1011.0
20200530101228 14 105 0.0 0.0 0.00 0.05 0.03 95 1010.9
20200530100718 14 105 0.0 0.0 0.00 0.05 0.03 95 1010.9
20200530100229 14 105 0.0 0.0 0.00 0.05 0.03 95 1010.9
20200530095720 14 105 0.0 0.0 0.00 0.05 0.03 95 1011.0
20200530095228 14 105 0.0 0.0 0.00 0.05 0.03 95 1011.0
20200530094735 14 105 0.0 0.0 0.00 0.05 0.03 95 1011.0
20200530094221 14 105 0.0 0.0 0.00 0.05 0.03 95 1011.0
20200530093730 14 105 0.0 0.0 0.00 0.05 0.03 95 1011.0
20200530093219 14 105 0.0 0.0 0.00 0.05 0.03 95 1011.0
20200530092725 14 105 0.0 0.0 0.00 0.05 0.03 95 1010.9
20200530092236 14 105 0.0 0.0 0.03 0.05 0.03 95 1010.9
20200530091722 14 105 0.0 0.0 0.03 0.05 0.03 95 1010.9
20200530091236 14 105 0.0 0.0 0.03 0.05 0.03 95 1010.9
20200530090727 14 105 0.0 0.0 0.03 0.05 0.03 95 1010.9
20200530090219 14 105 0.0 0.0 0.03 0.05 0.03 95 1010.9
20200530085726 14 105 0.0 0.0 0.03 0.05 0.03 95 1010.9
20200530085233 14 105 0.0 0.0 0.03 0.05 0.03 95 1010.9
20200530084722 14 105 0.0 0.0 0.03 0.05 0.03 95 1010.9
20200530084231 14 105 0.0 0.0 0.03 0.05 0.03 95 1010.9
20200530083720 14 105 0.0 0.0 0.03 0.05 0.03 95 1010.9
20200530083228 14 105 0.0 0.0 0.03 0.05 0.03 94 1010.9
20200530082721 14 105 0.0 0.0 0.03 0.05 0.03 94 1011.2
20200530082233 14 105 0.0 0.0 0.00 0.03 0.00 94 1011.2
20200530081722 14 105 0.0 0.0 0.00 0.03 0.00 94 1011.2